EW8945 Weather Reports


Display with metric or nautical units.
time (UTC)temp
F
wind
direction
speed
MPH
gust
MPH
rain 1hr
in
rain 24hr
in
rain mn
in
humidity
%
barometer
mb
20260505214505 61 5 3.0 7.0 0.00 0.00 0.00 72 1014.7
20260505214009 61 34 4.0 9.0 0.00 0.00 0.00 72 1014.9
20260505214005 61 334 4.0 7.0 0.00 0.00 0.00 73 1014.8
20260505213003 61 28 3.0 9.0 0.00 0.00 0.00 72 1014.9
20260505212502 61 15 3.0 8.0 0.00 0.00 0.00 73 1014.9
20260505212003 61 28 3.0 8.0 0.00 0.00 0.00 72 1015.0
20260505211503 61 350 4.0 7.0 0.00 0.00 0.00 72 1014.9
20260505211003 61 49 3.0 7.0 0.00 0.00 0.00 72 1014.8
20260505210503 61 333 2.0 7.0 0.00 0.00 0.00 72 1014.8
20260505210007 62 284 1.0 4.0 0.00 0.00 0.00 74 1014.7
20260505210001 61 295 2.0 7.0 0.00 0.00 0.00 72 1014.8
20260505205008 61 333 1.0 4.0 0.00 0.00 0.00 72 1014.8
20260505205002 61 333 1.0 3.0 0.00 0.00 0.00 72 1014.8
20260505204000 60 333 3.0 8.0 0.00 0.00 0.00 73 1014.8
20260505203500 61 333 3.0 8.0 0.00 0.00 0.00 74 1014.8
20260505202959 60 298 2.0 4.0 0.00 0.00 0.00 75 1014.9
20260505202501 60 275 3.0 7.0 0.00 0.00 0.00 74 1014.8
20260505201959 60 313 2.0 7.0 0.00 0.00 0.00 76 1014.8
20260505201457 60 293 2.0 6.0 0.00 0.00 0.00 75 1014.9
20260505200956 60 261 3.0 8.0 0.00 0.00 0.00 76 1015.0
20260505200456 60 304 3.0 8.0 0.00 0.00 0.00 76 1015.1
20260505195957 60 312 3.0 8.0 0.00 0.00 0.00 76 1015.1
20260505195459 60 292 3.0 6.0 0.00 0.00 0.00 75 1015.1
20260505195453 60 303 3.0 6.0 0.00 0.00 0.00 76 1015.1
20260505194458 60 327 3.0 7.0 0.00 0.00 0.00 74 1015.2
20260505194452 60 298 3.0 7.0 0.00 0.00 0.00 75 1015.1
20260505193453 60 355 3.0 7.0 0.00 0.00 0.00 74 1015.2
20260505192952 60 316 3.0 7.0 0.00 0.00 0.00 75 1015.2
20260505192449 60 304 2.0 7.0 0.00 0.00 0.00 74 1015.2
20260505191946 60 283 2.0 5.0 0.00 0.00 0.00 75 1015.1
20260505191447 60 5 3.0 8.0 0.00 0.00 0.00 76 1015.1
20260505190947 60 9 3.0 8.0 0.00 0.00 0.00 75 1015.2
20260505190445 59 320 3.0 7.0 0.00 0.00 0.00 75 1015.1
20260505185946 59 314 2.0 6.0 0.00 0.00 0.00 75 1015.1
20260505185447 59 296 3.0 6.0 0.00 0.00 0.00 76 1015.1
20260505184949 59 346 2.0 6.0 0.00 0.00 0.00 76 1015.1
20260505184944 58 278 3.0 6.0 0.00 0.00 0.00 77 1015.1
20260505183945 58 229 1.0 4.0 0.00 0.00 0.00 76 1015.1
20260505183445 58 267 1.0 3.0 0.00 0.00 0.00 76 1015.2
20260505182944 58 267 2.0 4.0 0.00 0.00 0.00 76 1015.1
20260505182444 58 267 2.0 4.0 0.00 0.00 0.00 76 1015.2
20260505181944 58 355 1.0 4.0 0.00 0.00 0.00 78 1015.2
20260505181443 57 344 1.0 4.0 0.00 0.00 0.00 77 1015.2
20260505180945 57 344 2.0 4.0 0.00 0.00 0.00 76 1015.2
20260505180441 57 344 2.0 5.0 0.00 0.00 0.00 76 1015.1
20260505175939 57 344 3.0 5.0 0.00 0.00 0.00 76 1015.0
20260505175441 57 355 2.0 7.0 0.00 0.00 0.00 76 1015.0
20260505174940 57 351 2.0 7.0 0.00 0.00 0.00 76 1015.0
20260505174440 57 309 2.0 6.0 0.00 0.00 0.00 76 1015.0
20260505173940 58 292 1.0 4.0 0.00 0.00 0.00 77 1014.9
20260505173441 58 292 2.0 5.0 0.00 0.00 0.00 77 1014.8
20260505172946 58 285 1.0 3.0 0.00 0.00 0.00 75 1014.7
20260505172942 58 292 2.0 5.0 0.00 0.00 0.00 76 1014.8
20260505171941 57 315 1.0 4.0 0.00 0.00 0.00 76 1014.6
20260505171446 57 315 1.0 4.0 0.00 0.00 0.00 73 1014.6
20260505171441 57 315 1.0 4.0 0.00 0.00 0.00 75 1014.6
20260505170445 57 311 2.0 4.0 0.00 0.00 0.00 74 1014.5
20260505170441 57 315 1.0 3.0 0.00 0.00 0.00 73 1014.5
20260505165441 57 322 1.0 4.0 0.00 0.00 0.00 73 1014.5
20260505164940 57 241 1.0 3.0 0.00 0.00 0.00 74 1014.5
20260505164448 57 241 1.0 4.0 0.00 0.00 0.00 75 1014.5
20260505164440 57 241 1.0 3.0 0.00 0.00 0.00 75 1014.5
20260505163942 57 241 1.0 3.0 0.00 0.00 0.00 74 1014.5
20260505162940 57 171 1.0 4.0 0.00 0.00 0.00 76 1014.5
20260505162439 57 171 1.0 4.0 0.00 0.00 0.00 75 1014.4
20260505161940 57 171 1.0 2.0 0.00 0.00 0.00 76 1014.5
20260505161439 57 171 1.0 2.0 0.00 0.00 0.00 75 1014.5
20260505160940 56 171 1.0 2.0 0.00 0.00 0.00 76 1014.4
20260505160439 56 171 1.0 4.0 0.00 0.00 0.00 76 1014.4
20260505152931 55 149 2.0 5.0 0.00 0.00 0.00 79 1014.2
20260505152433 55 155 2.0 6.0 0.00 0.00 0.00 79 1014.3
20260505151932 55 155 3.0 6.0 0.00 0.00 0.00 79 1014.2
20260505151434 55 148 3.0 6.0 0.00 0.00 0.00 79 1014.1
20260505151430 55 157 3.0 6.0 0.00 0.00 0.00 79 1014.1
20260505150428 54 165 3.0 5.0 0.00 0.00 0.00 80 1014.1
20260505140542 53 210 2.0 3.0 0.00 0.00 0.00 83 1013.6
20260505140423 53 210 0.0 2.0 0.00 0.00 0.00 82 1013.8
20260505124917 53 226 1.0 2.0 0.00 0.00 0.00 84 1013.4
20260505124415 53 226 1.0 2.0 0.00 0.00 0.00 85 1013.4
20260505123916 52 226 1.0 3.0 0.00 0.00 0.00 85 1013.6
20260505123415 52 226 0.0 3.0 0.00 0.00 0.00 85 1013.7
20260505122916 52 226 0.0 2.0 0.00 0.00 0.00 86 1013.6
20260505122417 52 229 0.0 0.0 0.00 0.00 0.00 86 1013.7
20260505121915 52 232 0.0 0.0 0.00 0.00 0.00 85 1013.7
20260505121415 52 232 0.0 0.0 0.00 0.00 0.00 85 1013.7
20260505120916 52 232 0.0 0.0 0.00 0.00 0.00 85 1013.6
20260505120417 52 283 0.0 0.0 0.00 0.00 0.00 85 1013.6
20260505115915 52 283 0.0 0.0 0.00 0.00 0.00 85 1013.6
20260505115413 52 283 0.0 0.0 0.00 0.00 0.00 85 1013.6
20260505114914 52 283 0.0 0.0 0.00 0.00 0.00 86 1013.7
20260505114413 52 283 0.0 0.0 0.00 0.00 0.00 85 1013.7
20260505113919 52 283 0.0 1.0 0.00 0.00 0.00 85 1013.8
20260505113913 52 283 0.0 0.0 0.00 0.00 0.00 85 1013.8
20260505113530 52 283 0.0 1.0 0.00 0.00 0.00 85 1013.7
20260505112413 52 283 0.0 0.0 0.00 0.00 0.00 84 1013.7
20260505111914 52 283 0.0 2.0 0.00 0.00 0.00 83 1013.7
20260505111413 53 283 1.0 3.0 0.00 0.00 0.00 82 1013.8
20260505110915 53 283 1.0 3.0 0.00 0.00 0.00 83 1013.7
20260505110413 53 283 0.0 3.0 0.00 0.00 0.00 83 1013.7
20260505101911 53 279 3.0 5.0 0.00 0.00 0.00 80 1013.6
20260505101409 53 300 2.0 5.0 0.00 0.00 0.00 80 1013.6
20260505100909 53 274 1.0 4.0 0.00 0.00 0.00 80 1013.8
20260505100409 53 273 0.0 0.0 0.00 0.00 0.00 80 1013.8
20260505095914 53 273 0.0 0.0 0.00 0.00 0.00 80 1013.9
20260505095909 53 273 0.0 0.0 0.00 0.00 0.00 80 1013.8
20260505094911 53 273 0.0 0.0 0.00 0.00 0.00 80 1013.8
20260505094410 53 272 0.0 0.0 0.00 0.00 0.00 79 1013.9
20260505093912 53 272 0.0 1.0 0.00 0.00 0.00 78 1014.0
20260505093908 53 272 0.0 0.0 0.00 0.00 0.00 78 1013.8
20260505092912 54 272 2.0 4.0 0.00 0.00 0.00 76 1013.9
20260505092907 53 272 1.0 3.0 0.00 0.00 0.00 76 1014.0
20260505091907 54 272 3.0 8.0 0.00 0.00 0.00 75 1013.9
20260505091407 54 297 4.0 8.0 0.00 0.00 0.00 75 1013.9
20260505090912 54 271 3.0 8.0 0.00 0.00 0.00 74 1014.1
20260505090908 54 295 3.0 8.0 0.00 0.00 0.00 75 1014.0
20260505085907 54 284 4.0 8.0 0.00 0.00 0.00 74 1014.1
20260505085404 54 298 5.0 10.0 0.00 0.00 0.00 73 1014.2
20260505084906 54 292 5.0 10.0 0.00 0.00 0.00 73 1014.2
20260505084406 54 304 5.0 10.0 0.00 0.00 0.00 73 1014.3
20260505083905 54 295 4.0 10.0 0.00 0.00 0.00 73 1014.3
20260505083412 54 313 4.0 10.0 0.00 0.00 0.00 72 1014.5
20260505083406 54 306 4.0 8.0 0.00 0.00 0.00 73 1014.4
20260505082906 54 286 5.0 10.0 0.00 0.00 0.00 72 1014.4
20260505081904 54 319 4.0 8.0 0.00 0.00 0.00 72 1014.5
20260505081405 54 315 5.0 11.0 0.00 0.00 0.00 72 1014.4
20260505080905 54 276 6.0 11.0 0.00 0.00 0.00 72 1014.4
20260505080406 55 285 5.0 11.0 0.00 0.00 0.00 73 1014.4
20260505075905 55 302 5.0 11.0 0.00 0.00 0.00 73 1014.5
20260505075406 54 269 6.0 15.0 0.00 0.00 0.00 74 1014.6
20260505074906 55 306 7.0 15.0 0.00 0.00 0.00 75 1014.5
20260505074405 55 304 5.0 13.0 0.00 0.00 0.00 76 1014.5
20260505073905 55 292 4.0 9.0 0.00 0.00 0.00 77 1014.5
20260505073406 55 295 4.0 9.0 0.00 0.00 0.00 78 1014.5
20260505072906 55 294 3.0 9.0 0.00 0.00 0.00 77 1014.5
20260505072406 55 300 3.0 8.0 0.00 0.00 0.00 78 1014.4
20260505071904 55 334 3.0 7.0 0.00 0.00 0.00 78 1014.4
20260505071406 55 287 4.0 7.0 0.00 0.00 0.00 78 1014.3
20260505070910 55 319 3.0 7.0 0.00 0.00 0.00 79 1014.2
20260505070906 55 294 3.0 7.0 0.00 0.00 0.00 79 1014.3
20260505065906 55 311 4.0 8.0 0.00 0.00 0.00 79 1014.2
20260505065409 55 302 2.0 8.0 0.00 0.00 0.00 80 1014.1
20260505065405 55 308 3.0 8.0 0.00 0.00 0.00 79 1014.1
20260505064408 55 290 3.0 6.0 0.00 0.00 0.00 81 1014.1
20260505064403 55 302 3.0 6.0 0.00 0.00 0.00 80 1014.1
20260505063402 55 319 2.0 5.0 0.00 0.00 0.00 81 1014.2
20260505062902 55 336 2.0 4.0 0.00 0.00 0.00 81 1014.1
20260505062400 55 267 2.0 6.0 0.00 0.00 0.00 81 1014.0
20260505061902 55 277 2.0 6.0 0.00 0.00 0.00 81 1013.9
20260505061856 55 267 2.0 6.0 0.00 0.00 0.00 81 1014.0
20260505060859 55 271 3.0 6.0 0.00 0.00 0.00 81 1013.9
20260505060357 55 275 4.0 9.0 0.00 0.00 0.00 81 1013.8
20260505055856 55 302 4.0 9.0 0.00 0.00 0.00 81 1013.9
20260505055356 56 309 3.0 7.0 0.00 0.00 0.00 80 1014.0
20260505054855 56 303 2.0 4.0 0.00 0.00 0.00 80 1014.1
20260505054355 56 288 3.0 6.0 0.00 0.00 0.00 79 1014.0
20260505053856 56 333 4.0 9.0 0.00 0.00 0.00 79 1014.1
20260505053353 56 294 4.0 9.0 0.00 0.00 0.00 79 1014.1
20260505052855 56 280 3.0 7.0 0.00 0.00 0.00 79 1014.2
20260505052400 56 306 4.0 7.0 0.00 0.00 0.00 78 1014.4
20260505052355 56 323 3.0 7.0 0.00 0.00 0.00 79 1014.4
20260505051354 56 288 3.0 7.0 0.00 0.00 0.00 78 1014.4
20260505050859 56 296 5.0 11.0 0.00 0.00 0.00 77 1014.5
20260505050853 56 304 3.0 9.0 0.00 0.00 0.00 77 1014.4
20260505041356 57 342 5.0 10.0 0.00 0.00 0.00 76 1014.0
20260505041351 56 332 4.0 10.0 0.00 0.00 0.00 77 1014.0
20260505041020 57 312 5.0 11.0 0.00 0.00 0.00 76 1013.9
20260505040508 57 292 4.0 11.0 0.00 0.00 0.00 75 1013.8
20260505035349 57 331 4.0 11.0 0.00 0.00 0.00 74 1013.7
20260505034850 57 344 5.0 12.0 0.00 0.00 0.00 74 1013.7
20260505034349 57 300 5.0 12.0 0.00 0.00 0.00 73 1013.7
20260505033849 58 311 4.0 10.0 0.00 0.00 0.00 72 1013.6
20260505033355 58 334 4.0 8.0 0.00 0.00 0.00 72 1013.2
20260505033350 58 321 4.0 10.0 0.00 0.00 0.00 71 1013.4
20260505032349 58 309 4.0 9.0 0.00 0.00 0.00 70 1013.1
20260505031848 59 318 4.0 9.0 0.00 0.00 0.00 70 1013.0
20260505031349 59 329 4.0 9.0 0.00 0.00 0.00 69 1013.1
20260505030854 59 341 4.0 10.0 0.00 0.00 0.00 68 1013.1
20260505030849 59 341 4.0 9.0 0.00 0.00 0.00 68 1013.1
20260505025852 59 355 4.0 8.0 0.00 0.00 0.00 66 1013.1
20260505025848 59 306 4.0 10.0 0.00 0.00 0.00 67 1013.1
20260505024848 59 312 4.0 10.0 0.00 0.00 0.00 66 1013.1
20260505024353 60 337 4.0 9.0 0.00 0.00 0.00 66 1013.0
20260505024349 60 309 4.0 10.0 0.00 0.00 0.00 66 1013.1
20260505023347 60 315 4.0 10.0 0.00 0.00 0.00 66 1013.0
20260505022848 60 295 5.0 12.0 0.00 0.00 0.00 65 1013.2
20260505022348 60 303 5.0 12.0 0.00 0.00 0.00 64 1013.1
20260505021845 60 327 4.0 11.0 0.00 0.00 0.00 64 1012.9
20260505021343 60 318 5.0 10.0 0.00 0.00 0.00 64 1013.1
20260505020843 60 346 6.0 11.0 0.00 0.00 0.00 63 1013.1
20260505020344 60 313 6.0 11.0 0.00 0.00 0.00 63 1012.9
20260505015843 60 9 6.0 12.0 0.00 0.00 0.00 63 1013.0
20260505015348 60 329 7.0 13.0 0.00 0.00 0.00 64 1013.0
20260505015343 60 329 7.0 13.0 0.00 0.00 0.00 64 1012.9
20260505014344 61 306 6.0 12.0 0.00 0.00 0.00 64 1013.0
20260505013844 61 325 6.0 12.0 0.00 0.00 0.00 65 1013.0
20260505013345 61 348 4.0 12.0 0.00 0.00 0.00 65 1013.0
20260505013001 62 48 5.0 11.0 0.00 0.00 0.00 64 1013.0
20260505012848 62 19 4.0 11.0 0.00 0.00 0.00 64 1013.0
20260505012842 61 329 3.0 8.0 0.00 0.00 0.00 64 1013.0
20260505011343 62 310 4.0 10.0 0.00 0.00 0.00 63 1013.1
20260505010844 62 309 4.0 10.0 0.00 0.00 0.00 64 1013.0
20260505010343 62 345 5.0 11.0 0.00 0.00 0.00 64 1013.1
20260505005844 62 318 5.0 11.0 0.00 0.00 0.00 64 1013.2
20260505005344 62 326 3.0 11.0 0.00 0.00 0.00 64 1013.2
20260505004844 62 327 4.0 8.0 0.00 0.00 0.00 64 1013.3
20260505004344 63 348 4.0 8.0 0.00 0.00 0.00 65 1013.3
20260505003840 63 325 4.0 10.0 0.00 0.00 0.00 66 1013.3
20260505003342 62 338 5.0 10.0 0.00 0.00 0.00 66 1013.3
20260505002841 63 319 6.0 10.0 0.00 0.00 0.00 66 1013.3
20260505002342 63 320 5.0 11.0 0.00 0.00 0.00 66 1013.4
20260505001842 62 309 4.0 11.0 0.00 0.00 0.00 66 1013.4
20260505001345 62 314 4.0 9.0 0.00 0.00 0.00 68 1013.3
20260505001339 62 317 4.0 9.0 0.00 0.00 0.00 68 1013.3
20260505000345 62 242 4.0 9.0 0.00 0.00 0.00 67 1013.3
20260505000339 61 323 4.0 8.0 0.00 0.00 0.00 67 1013.3
20260504235839 61 231 4.0 9.0 0.00 0.00 0.00 67 1013.3
20260504234841 62 244 3.0 9.0 0.00 0.00 0.00 67 1013.2
20260504234837 62 204 4.0 9.0 0.00 0.00 0.00 66 1013.3
20260504233835 62 209 3.0 9.0 0.00 0.00 0.00 67 1013.2
20260504233336 62 291 2.0 7.0 0.00 0.00 0.00 66 1013.2
20260504232834 62 321 2.0 4.0 0.00 0.00 0.00 66 1013.3
20260504232336 62 321 2.0 4.0 0.00 0.00 0.00 64 1013.3
20260504231835 62 321 2.0 7.0 0.00 0.00 0.00 64 1013.2
20260504231335 62 303 3.0 8.0 0.00 0.00 0.00 66 1013.2
20260504230834 62 279 4.0 8.0 0.00 0.00 0.00 65 1013.2
20260504230335 62 284 4.0 10.0 0.00 0.00 0.00 64 1013.2
20260504225835 63 281 6.0 12.0 0.00 0.00 0.00 65 1013.2
20260504225335 63 275 6.0 12.0 0.00 0.00 0.00 65 1013.2
20260504224836 63 308 5.0 10.0 0.00 0.00 0.00 65 1013.1
20260504224335 63 304 6.0 12.0 0.00 0.00 0.00 64 1013.2
20260504223835 63 321 7.0 12.0 0.00 0.00 0.00 64 1013.2
20260504223334 63 333 7.0 14.0 0.00 0.00 0.00 65 1013.3
20260504222835 63 332 7.0 15.0 0.00 0.00 0.00 64 1013.3
20260504222340 64 319 6.0 13.0 0.00 0.00 0.00 62 1013.2
20260504222336 64 324 7.0 15.0 0.00 0.00 0.00 63 1013.3
20260504221334 65 300 6.0 13.0 0.00 0.00 0.00 63 1013.2
20260504220835 66 316 4.0 9.0 0.00 0.00 0.00 60 1013.3
20260504220336 66 273 4.0 8.0 0.00 0.00 0.00 62 1013.4
20260504215835 65 306 4.0 10.0 0.00 0.00 0.00 61 1013.4
20260504215335 65 286 4.0 10.0 0.00 0.00 0.00 61 1013.4